| time (UTC) | temp F | wind direction | speed knots | gust knots | rain 1hr in | rain 24hr in | rain mn in | humidity % | barometer mb |
| 20260906181032 | 60 | 260 | 0.0 | 0.0 | 0.00 | 0.01 | 0.01 | 79 | 1022.1 |
| 20260906180531 | 61 | 260 | 0.0 | 0.0 | 0.00 | 0.01 | 0.01 | 78 | 1022.1 |
| 20260906180032 | 61 | 260 | 0.0 | 0.0 | 0.00 | 0.01 | 0.01 | 78 | 1022.0 |
| 20260906175532 | 61 | 260 | 0.0 | 0.0 | 0.00 | 0.01 | 0.01 | 78 | 1022.0 |
| 20260906175034 | 61 | 260 | 0.0 | 0.0 | 0.00 | 0.01 | 0.01 | 77 | 1022.0 |
| 20260906174531 | 62 | 260 | 0.0 | 0.0 | 0.00 | 0.01 | 0.01 | 77 | 1021.9 |
| 20260906174031 | 62 | 260 | 0.0 | 0.0 | 0.00 | 0.01 | 0.01 | 76 | 1021.9 |
| 20260906173530 | 62 | 260 | 0.0 | 0.0 | 0.00 | 0.01 | 0.01 | 75 | 1021.9 |
| 20260906173031 | 62 | 260 | 0.0 | 0.0 | 0.00 | 0.01 | 0.01 | 74 | 1021.9 |
| 20260906172531 | 63 | 260 | 0.0 | 0.9 | 0.00 | 0.01 | 0.01 | 73 | 1022.0 |
| 20260906172030 | 63 | 260 | 0.0 | 1.7 | 0.00 | 0.01 | 0.01 | 73 | 1022.0 |
| 20260906171535 | 63 | 260 | 0.0 | 1.7 | 0.00 | 0.01 | 0.01 | 73 | 1022.0 |
| 20260906171029 | 63 | 304 | 0.0 | 2.6 | 0.00 | 0.01 | 0.01 | 72 | 1022.1 |
| 20260906170530 | 63 | 313 | 0.0 | 1.7 | 0.00 | 0.01 | 0.01 | 71 | 1022.1 |
| 20260906170030 | 64 | 313 | 0.0 | 1.7 | 0.00 | 0.01 | 0.01 | 71 | 1022.1 |
| 20260906165530 | 64 | 211 | 0.0 | 2.6 | 0.00 | 0.01 | 0.01 | 70 | 1022.1 |
| 20260906165029 | 64 | 177 | 0.9 | 2.6 | 0.00 | 0.01 | 0.01 | 69 | 1022.1 |
| 20260906164529 | 64 | 276 | 0.9 | 3.5 | 0.00 | 0.01 | 0.01 | 69 | 1022.2 |
| 20260906164029 | 64 | 194 | 0.0 | 4.3 | 0.00 | 0.01 | 0.01 | 68 | 1022.2 |
| 20260906163528 | 64 | 266 | 1.7 | 6.1 | 0.00 | 0.01 | 0.01 | 67 | 1022.2 |
| 20260906163028 | 64 | 294 | 0.9 | 7.0 | 0.00 | 0.01 | 0.01 | 66 | 1022.2 |
| 20260906162529 | 65 | 314 | 0.9 | 5.2 | 0.00 | 0.01 | 0.01 | 67 | 1022.2 |
| 20260906162027 | 65 | 148 | 0.9 | 4.3 | 0.00 | 0.01 | 0.01 | 67 | 1022.2 |
| 20260906161530 | 65 | 274 | 0.0 | 4.3 | 0.00 | 0.01 | 0.01 | 67 | 1022.2 |
| 20260906161031 | 65 | 305 | 0.0 | 6.1 | 0.00 | 0.01 | 0.01 | 67 | 1022.2 |
| 20260906160527 | 65 | 289 | 1.7 | 6.1 | 0.00 | 0.01 | 0.01 | 66 | 1022.2 |
| 20260906160028 | 65 | 250 | 2.6 | 6.1 | 0.00 | 0.01 | 0.01 | 64 | 1022.3 |
| 20260906155527 | 64 | 253 | 1.7 | 5.2 | 0.00 | 0.01 | 0.01 | 67 | 1022.3 |
| 20260906155028 | 64 | 137 | 2.6 | 6.1 | 0.00 | 0.01 | 0.01 | 65 | 1022.2 |
| 20260906154527 | 64 | 58 | 0.9 | 5.2 | 0.00 | 0.01 | 0.01 | 65 | 1022.3 |
| 20260906154027 | 65 | 286 | 0.9 | 4.3 | 0.00 | 0.01 | 0.01 | 66 | 1022.3 |
| 20260906153530 | 65 | 287 | 0.9 | 7.8 | 0.00 | 0.01 | 0.01 | 66 | 1022.2 |
| 20260906153028 | 65 | 260 | 0.9 | 6.1 | 0.00 | 0.01 | 0.01 | 66 | 1022.2 |
| 20260906152528 | 65 | 331 | 1.7 | 6.1 | 0.00 | 0.01 | 0.01 | 65 | 1022.0 |
| 20260906152029 | 65 | 217 | 0.9 | 7.0 | 0.00 | 0.01 | 0.01 | 66 | 1022.1 |
| 20260906151526 | 65 | 224 | 1.7 | 7.0 | 0.00 | 0.01 | 0.01 | 66 | 1022.1 |
| 20260906151025 | 65 | 301 | 0.9 | 5.2 | 0.00 | 0.01 | 0.01 | 66 | 1022.1 |
| 20260906150528 | 65 | 179 | 0.9 | 7.8 | 0.00 | 0.01 | 0.01 | 66 | 1022.1 |
| 20260906150031 | 65 | 294 | 2.6 | 7.8 | 0.00 | 0.01 | 0.01 | 66 | 1022.1 |
| 20260906145524 | 65 | 305 | 0.9 | 7.8 | 0.00 | 0.01 | 0.01 | 66 | 1022.2 |
| 20260906145025 | 66 | 271 | 2.6 | 7.0 | 0.00 | 0.01 | 0.01 | 65 | 1022.3 |
| 20260906144524 | 66 | 169 | 0.9 | 5.2 | 0.00 | 0.01 | 0.01 | 65 | 1022.1 |
| 20260906144026 | 66 | 293 | 1.7 | 5.2 | 0.00 | 0.01 | 0.01 | 65 | 1022.1 |
| 20260906143523 | 66 | 315 | 0.9 | 4.3 | 0.00 | 0.01 | 0.01 | 67 | 1022.1 |
| 20260906143022 | 65 | 252 | 0.9 | 4.3 | 0.00 | 0.01 | 0.01 | 68 | 1022.2 |
| 20260906142523 | 65 | 259 | 0.9 | 5.2 | 0.00 | 0.01 | 0.01 | 68 | 1022.2 |
| 20260906142021 | 64 | 274 | 0.9 | 7.8 | 0.00 | 0.01 | 0.01 | 67 | 1022.2 |
| 20260906141522 | 64 | 211 | 1.7 | 7.8 | 0.00 | 0.01 | 0.01 | 66 | 1022.3 |
| 20260906141027 | 65 | 269 | 0.9 | 6.1 | 0.00 | 0.01 | 0.01 | 66 | 1022.2 |
| 20260906140622 | 65 | 217 | 1.7 | 7.0 | 0.00 | 0.01 | 0.01 | 65 | 1022.3 |
| 20260906140023 | 65 | 271 | 2.6 | 7.8 | 0.00 | 0.01 | 0.01 | 65 | 1022.2 |
| 20260906135523 | 65 | 246 | 0.9 | 5.2 | 0.00 | 0.01 | 0.01 | 66 | 1022.3 |
| 20260906135021 | 65 | 140 | 1.7 | 5.2 | 0.00 | 0.01 | 0.01 | 66 | 1022.2 |
| 20260906134521 | 64 | 250 | 1.7 | 10.4 | 0.00 | 0.01 | 0.01 | 65 | 1022.2 |
| 20260906134022 | 64 | 70 | 2.6 | 10.4 | 0.00 | 0.01 | 0.01 | 64 | 1022.2 |
| 20260906133523 | 65 | 239 | 2.6 | 7.8 | 0.00 | 0.01 | 0.01 | 63 | 1022.2 |
| 20260906133019 | 65 | 314 | 2.6 | 7.8 | 0.00 | 0.01 | 0.01 | 64 | 1022.1 |
| 20260906132520 | 65 | 303 | 2.6 | 10.4 | 0.00 | 0.01 | 0.01 | 64 | 1022.2 |
| 20260906132019 | 65 | 288 | 1.7 | 10.4 | 0.00 | 0.01 | 0.01 | 63 | 1022.2 |
| 20260906131519 | 65 | 205 | 1.7 | 11.3 | 0.00 | 0.01 | 0.01 | 62 | 1022.2 |
| 20260906131019 | 65 | 185 | 3.5 | 11.3 | 0.00 | 0.01 | 0.01 | 61 | 1022.2 |
| 20260906130519 | 65 | 207 | 2.6 | 8.7 | 0.00 | 0.01 | 0.01 | 62 | 1022.2 |
| 20260906130020 | 66 | 355 | 5.2 | 8.7 | 0.00 | 0.01 | 0.01 | 59 | 1022.3 |
| 20260906125517 | 65 | 309 | 2.6 | 8.7 | 0.00 | 0.02 | 0.01 | 63 | 1022.1 |
| 20260906125017 | 65 | 167 | 1.7 | 8.7 | 0.00 | 0.02 | 0.01 | 63 | 1022.1 |
| 20260906124517 | 65 | 206 | 2.6 | 8.7 | 0.00 | 0.02 | 0.01 | 62 | 1022.2 |
| 20260906124017 | 65 | 277 | 3.5 | 10.4 | 0.00 | 0.02 | 0.01 | 62 | 1022.1 |
| 20260906123516 | 65 | 342 | 2.6 | 10.4 | 0.00 | 0.02 | 0.01 | 62 | 1022.1 |
| 20260906123023 | 65 | 215 | 1.7 | 6.1 | 0.00 | 0.02 | 0.01 | 63 | 1022.1 |
| 20260906122515 | 65 | 224 | 2.6 | 7.0 | 0.00 | 0.02 | 0.01 | 61 | 1022.0 |
| 20260906122015 | 65 | 199 | 1.7 | 7.8 | 0.00 | 0.02 | 0.01 | 61 | 1022.0 |
| 20260906121516 | 65 | 84 | 0.9 | 9.6 | 0.00 | 0.02 | 0.01 | 62 | 1022.1 |
| 20260906121015 | 65 | 291 | 2.6 | 10.4 | 0.00 | 0.02 | 0.01 | 60 | 1022.1 |
| 20260906120514 | 65 | 294 | 4.3 | 10.4 | 0.00 | 0.02 | 0.01 | 58 | 1022.1 |
| 20260906120013 | 65 | 271 | 4.3 | 10.4 | 0.00 | 0.02 | 0.01 | 57 | 1022.0 |
| 20260906115513 | 65 | 245 | 3.5 | 13.0 | 0.00 | 0.02 | 0.01 | 60 | 1021.9 |
| 20260906115012 | 65 | 218 | 3.5 | 13.0 | 0.00 | 0.02 | 0.01 | 62 | 1021.9 |
| 20260906114532 | 65 | 295 | 2.6 | 9.6 | 0.00 | 0.02 | 0.01 | 61 | 1021.9 |
| 20260906114011 | 65 | 188 | 1.7 | 7.8 | 0.00 | 0.02 | 0.01 | 63 | 1021.8 |
| 20260906113510 | 64 | 295 | 2.6 | 7.8 | 0.00 | 0.02 | 0.01 | 62 | 1021.9 |
| 20260906113009 | 64 | 286 | 3.5 | 7.8 | 0.00 | 0.02 | 0.01 | 62 | 1021.9 |
| 20260906112510 | 64 | 181 | 1.7 | 7.8 | 0.00 | 0.02 | 0.01 | 64 | 1021.8 |
| 20260906112008 | 64 | 243 | 3.5 | 7.8 | 0.00 | 0.02 | 0.01 | 62 | 1021.9 |
| 20260906111518 | 64 | 331 | 1.7 | 7.8 | 0.00 | 0.02 | 0.01 | 64 | 1021.8 |
| 20260906111007 | 63 | 69 | 1.7 | 4.3 | 0.00 | 0.02 | 0.01 | 66 | 1021.8 |
| 20260906110510 | 63 | 177 | 0.9 | 7.0 | 0.00 | 0.02 | 0.01 | 66 | 1021.8 |
| 20260906110008 | 63 | 128 | 1.7 | 7.0 | 0.00 | 0.02 | 0.01 | 67 | 1021.8 |
| 20260906105509 | 63 | 299 | 0.9 | 7.8 | 0.00 | 0.02 | 0.01 | 68 | 1021.8 |
| 20260906105006 | 63 | 279 | 2.6 | 7.8 | 0.00 | 0.02 | 0.01 | 68 | 1021.9 |
| 20260906104509 | 63 | 40 | 1.7 | 8.7 | 0.00 | 0.02 | 0.01 | 68 | 1021.9 |
| 20260906104005 | 63 | 24 | 2.6 | 8.7 | 0.00 | 0.02 | 0.01 | 67 | 1021.8 |
| 20260906103503 | 63 | 303 | 2.6 | 8.7 | 0.00 | 0.02 | 0.01 | 68 | 1021.8 |
| 20260906103003 | 63 | 149 | 0.9 | 9.6 | 0.00 | 0.02 | 0.01 | 68 | 1021.7 |
| 20260906102502 | 63 | 198 | 1.7 | 9.6 | 0.00 | 0.02 | 0.01 | 67 | 1021.7 |
| 20260906102002 | 63 | 183 | 2.6 | 9.6 | 0.00 | 0.02 | 0.01 | 70 | 1021.6 |
| 20260906101501 | 63 | 221 | 2.6 | 9.6 | 0.00 | 0.02 | 0.01 | 69 | 1021.5 |
| 20260906101001 | 63 | 223 | 2.6 | 12.2 | 0.00 | 0.02 | 0.01 | 68 | 1021.5 |
| 20260906100602 | 63 | 300 | 2.6 | 14.8 | 0.00 | 0.02 | 0.01 | 67 | 1021.3 |
| 20260906100100 | 64 | 239 | 3.5 | 14.8 | 0.00 | 0.02 | 0.01 | 68 | 1021.3 |
| 20260906095559 | 64 | 288 | 4.3 | 9.6 | 0.00 | 0.02 | 0.01 | 68 | 1021.2 |
| 20260906095058 | 64 | 214 | 2.6 | 8.7 | 0.00 | 0.02 | 0.01 | 68 | 1021.0 |
| 20260906094557 | 64 | 341 | 3.5 | 7.8 | 0.00 | 0.02 | 0.01 | 69 | 1021.0 |
| 20260906094055 | 64 | 296 | 3.5 | 7.8 | 0.00 | 0.02 | 0.01 | 69 | 1020.9 |
| 20260906093555 | 64 | 170 | 3.5 | 9.6 | 0.00 | 0.02 | 0.01 | 70 | 1020.9 |
| 20260906093053 | 64 | 209 | 3.5 | 9.6 | 0.00 | 0.02 | 0.01 | 70 | 1021.0 |
| 20260906092552 | 63 | 289 | 1.7 | 9.6 | 0.00 | 0.02 | 0.01 | 70 | 1020.8 |
| 20260906092052 | 63 | 30 | 3.5 | 11.3 | 0.00 | 0.02 | 0.01 | 69 | 1020.7 |
| 20260906091551 | 63 | 68 | 3.5 | 12.2 | 0.00 | 0.02 | 0.01 | 70 | 1020.9 |
| 20260906091050 | 63 | 289 | 2.6 | 12.2 | 0.00 | 0.02 | 0.01 | 71 | 1020.8 |
| 20260906090548 | 63 | 159 | 3.5 | 9.6 | 0.00 | 0.02 | 0.01 | 73 | 1020.6 |
| 20260906090048 | 62 | 283 | 4.3 | 8.7 | 0.00 | 0.02 | 0.01 | 72 | 1020.6 |
| 20260906085551 | 62 | 271 | 2.6 | 8.7 | 0.00 | 0.02 | 0.01 | 73 | 1020.6 |
| 20260906085047 | 62 | 272 | 3.5 | 10.4 | 0.00 | 0.02 | 0.01 | 73 | 1020.5 |
| 20260906084546 | 62 | 290 | 1.7 | 12.2 | 0.00 | 0.02 | 0.01 | 74 | 1020.5 |
| 20260906084045 | 62 | 123 | 3.5 | 12.2 | 0.00 | 0.02 | 0.01 | 75 | 1020.5 |
| 20260906083543 | 61 | 268 | 2.6 | 12.2 | 0.00 | 0.02 | 0.01 | 76 | 1020.4 |
| 20260906083042 | 61 | 263 | 3.5 | 12.2 | 0.00 | 0.02 | 0.01 | 76 | 1020.4 |
| 20260906082541 | 61 | 266 | 2.6 | 12.2 | 0.00 | 0.02 | 0.01 | 77 | 1020.2 |
| 20260906082040 | 61 | 289 | 1.7 | 9.6 | 0.00 | 0.02 | 0.01 | 77 | 1020.1 |
| 20260906081542 | 61 | 298 | 2.6 | 9.6 | 0.00 | 0.02 | 0.01 | 77 | 1020.1 |
| 20260906081040 | 61 | 184 | 2.6 | 12.2 | 0.00 | 0.02 | 0.01 | 78 | 1020.1 |
| 20260906080538 | 61 | 161 | 2.6 | 12.2 | 0.00 | 0.02 | 0.01 | 78 | 1020.1 |
| 20260906080037 | 61 | 277 | 3.5 | 12.2 | 0.00 | 0.02 | 0.01 | 78 | 1019.9 |
| 20260906075535 | 60 | 179 | 2.6 | 8.7 | 0.00 | 0.02 | 0.01 | 79 | 1020.0 |
| 20260906075036 | 60 | 15 | 2.6 | 8.7 | 0.00 | 0.02 | 0.01 | 79 | 1020.0 |
| 20260906074534 | 60 | 275 | 1.7 | 9.6 | 0.00 | 0.02 | 0.01 | 80 | 1020.0 |
| 20260906074032 | 60 | 179 | 1.7 | 8.7 | 0.00 | 0.02 | 0.01 | 81 | 1019.9 |
| 20260906073536 | 60 | 153 | 0.9 | 15.6 | 0.00 | 0.02 | 0.01 | 81 | 1019.9 |
| 20260906073030 | 59 | 273 | 4.3 | 15.6 | 0.00 | 0.02 | 0.01 | 81 | 1019.8 |
| 20260906072529 | 59 | 318 | 0.9 | 8.7 | 0.00 | 0.02 | 0.01 | 82 | 1019.7 |
| 20260906072029 | 59 | 26 | 2.6 | 11.3 | 0.00 | 0.02 | 0.01 | 81 | 1019.7 |
| 20260906071531 | 59 | 60 | 2.6 | 11.3 | 0.00 | 0.02 | 0.01 | 82 | 1019.5 |
| 20260906071025 | 58 | 253 | 3.5 | 10.4 | 0.00 | 0.02 | 0.01 | 83 | 1019.5 |
| 20260906070527 | 58 | 288 | 5.2 | 13.0 | 0.00 | 0.02 | 0.01 | 83 | 1019.4 |
| 20260906070023 | 58 | 262 | 3.5 | 13.0 | 0.00 | 0.02 | 0.01 | 84 | 1019.4 |
| 20260906065522 | 58 | 246 | 1.7 | 9.6 | 0.00 | 0.02 | 0.01 | 84 | 1019.4 |
| 20260906065021 | 58 | 160 | 2.6 | 11.3 | 0.00 | 0.02 | 0.01 | 85 | 1019.3 |
| 20260906064526 | 57 | 277 | 1.7 | 11.3 | 0.00 | 0.02 | 0.01 | 86 | 1019.3 |
| 20260906064019 | 57 | 262 | 2.6 | 12.2 | 0.00 | 0.02 | 0.01 | 86 | 1019.3 |
| 20260906063517 | 57 | 252 | 2.6 | 12.2 | 0.00 | 0.02 | 0.01 | 87 | 1019.2 |
| 20260906063016 | 56 | 198 | 2.6 | 10.4 | 0.00 | 0.02 | 0.01 | 87 | 1019.2 |
| 20260906062515 | 56 | 163 | 1.7 | 6.1 | 0.00 | 0.02 | 0.01 | 88 | 1019.1 |
| 20260906062014 | 56 | 190 | 1.7 | 6.1 | 0.00 | 0.02 | 0.01 | 88 | 1019.1 |
| 20260906061514 | 56 | 310 | 1.7 | 7.0 | 0.00 | 0.02 | 0.01 | 88 | 1019.1 |
| 20260906061014 | 56 | 331 | 2.6 | 7.0 | 0.00 | 0.02 | 0.01 | 89 | 1019.1 |
| 20260906060513 | 55 | 132 | 1.7 | 13.0 | 0.00 | 0.02 | 0.01 | 89 | 1019.1 |
| 20260906060012 | 55 | 269 | 2.6 | 13.0 | 0.00 | 0.02 | 0.01 | 89 | 1019.0 |
| 20260906055512 | 55 | 328 | 2.6 | 7.8 | 0.00 | 0.02 | 0.01 | 90 | 1019.1 |
| 20260906055013 | 55 | 162 | 1.7 | 7.0 | 0.00 | 0.02 | 0.01 | 90 | 1019.0 |
| 20260906054510 | 55 | 242 | 1.7 | 6.1 | 0.00 | 0.02 | 0.01 | 90 | 1018.9 |
| 20260906054008 | 54 | 217 | 2.6 | 8.7 | 0.00 | 0.02 | 0.01 | 90 | 1018.8 |
| 20260906053511 | 54 | 232 | 1.7 | 8.7 | 0.00 | 0.02 | 0.01 | 90 | 1018.7 |
| 20260906053006 | 54 | 205 | 2.6 | 10.4 | 0.00 | 0.02 | 0.01 | 91 | 1018.6 |
| 20260906052505 | 54 | 286 | 0.9 | 10.4 | 0.00 | 0.02 | 0.01 | 91 | 1018.5 |
| 20260906052005 | 54 | 212 | 2.6 | 7.0 | 0.00 | 0.02 | 0.01 | 91 | 1018.5 |
| 20260906051504 | 54 | 176 | 0.9 | 7.0 | 0.00 | 0.02 | 0.01 | 91 | 1018.6 |
| 20260906051104 | 54 | 192 | 0.9 | 7.0 | 0.00 | 0.02 | 0.01 | 91 | 1018.5 |
| 20260906050501 | 54 | 210 | 1.7 | 7.0 | 0.00 | 0.02 | 0.01 | 91 | 1018.4 |
| 20260906050003 | 54 | 166 | 0.9 | 7.8 | 0.00 | 0.02 | 0.01 | 91 | 1018.3 |
| 20260906045600 | 54 | 256 | 2.6 | 7.8 | 0.00 | 0.02 | 0.01 | 91 | 1018.3 |
| 20260906045059 | 54 | 288 | 1.7 | 10.4 | 0.00 | 0.02 | 0.01 | 91 | 1018.3 |
| 20260906044559 | 54 | 281 | 2.6 | 10.4 | 0.00 | 0.02 | 0.01 | 91 | 1018.2 |
| 20260906044102 | 54 | 199 | 0.9 | 7.8 | 0.00 | 0.02 | 0.01 | 91 | 1018.1 |
| 20260906043557 | 54 | 232 | 2.6 | 7.8 | 0.00 | 0.02 | 0.01 | 91 | 1018.2 |
| 20260906043102 | 54 | 242 | 2.6 | 7.0 | 0.00 | 0.02 | 0.01 | 91 | 1018.0 |
| 20260906042556 | 54 | 142 | 1.7 | 7.8 | 0.00 | 0.02 | 0.01 | 91 | 1018.1 |
| 20260906042055 | 54 | 299 | 1.7 | 7.8 | 0.00 | 0.02 | 0.01 | 91 | 1018.0 |
| 20260906041555 | 54 | 207 | 1.7 | 8.7 | 0.00 | 0.02 | 0.01 | 91 | 1017.9 |
| 20260906041054 | 54 | 301 | 2.6 | 8.7 | 0.00 | 0.02 | 0.01 | 91 | 1017.8 |
| 20260906040553 | 54 | 281 | 2.6 | 7.8 | 0.00 | 0.02 | 0.01 | 91 | 1017.9 |
| 20260906040053 | 54 | 288 | 1.7 | 7.8 | 0.00 | 0.02 | 0.01 | 90 | 1017.8 |
| 20260906035552 | 54 | 27 | 3.5 | 11.3 | 0.00 | 0.02 | 0.01 | 90 | 1017.8 |
| 20260906035052 | 54 | 286 | 1.7 | 11.3 | 0.00 | 0.02 | 0.01 | 90 | 1017.6 |
| 20260906034558 | 54 | 231 | 2.6 | 7.0 | 0.00 | 0.02 | 0.01 | 90 | 1017.5 |
| 20260906034050 | 54 | 173 | 1.7 | 7.0 | 0.00 | 0.02 | 0.01 | 90 | 1017.5 |
| 20260906033550 | 54 | 280 | 0.9 | 7.0 | 0.00 | 0.02 | 0.01 | 90 | 1017.4 |
| 20260906033048 | 54 | 272 | 1.7 | 9.6 | 0.00 | 0.02 | 0.01 | 90 | 1017.3 |
| 20260906032547 | 54 | 266 | 0.9 | 9.6 | 0.00 | 0.02 | 0.01 | 90 | 1017.3 |
| 20260906032047 | 54 | 194 | 1.7 | 6.1 | 0.00 | 0.02 | 0.01 | 90 | 1017.2 |
| 20260906031608 | 54 | 277 | 0.9 | 7.8 | 0.00 | 0.02 | 0.01 | 90 | 1017.1 |
| 20260906031046 | 54 | 281 | 1.7 | 8.7 | 0.00 | 0.02 | 0.01 | 90 | 1017.1 |
| 20260906030545 | 54 | 206 | 1.7 | 9.6 | 0.00 | 0.02 | 0.01 | 90 | 1017.0 |
| 20260906030044 | 54 | 330 | 1.7 | 5.2 | 0.00 | 0.02 | 0.01 | 89 | 1016.9 |
| 20260906025543 | 54 | 157 | 0.9 | 5.2 | 0.00 | 0.02 | 0.01 | 89 | 1016.9 |
| 20260906025043 | 54 | 182 | 1.7 | 5.2 | 0.00 | 0.02 | 0.01 | 89 | 1016.9 |
| 20260906024549 | 54 | 272 | 1.7 | 5.2 | 0.00 | 0.02 | 0.01 | 89 | 1016.9 |
| 20260906024041 | 54 | 146 | 0.9 | 7.0 | 0.00 | 0.02 | 0.01 | 89 | 1016.8 |
| 20260906023541 | 54 | 321 | 2.6 | 7.0 | 0.00 | 0.02 | 0.01 | 88 | 1016.8 |
| 20260906023054 | 54 | 192 | 1.7 | 7.0 | 0.00 | 0.02 | 0.01 | 88 | 1016.8 |
| 20260906022539 | 55 | 163 | 1.7 | 7.0 | 0.00 | 0.02 | 0.01 | 88 | 1016.8 |
| 20260906022041 | 55 | 261 | 2.6 | 7.8 | 0.00 | 0.02 | 0.01 | 88 | 1016.8 |
| 20260906021539 | 55 | 18 | 1.7 | 9.6 | 0.00 | 0.02 | 0.01 | 88 | 1016.7 |
| 20260906021040 | 55 | 276 | 0.9 | 7.8 | 0.00 | 0.02 | 0.01 | 88 | 1016.7 |
| 20260906020538 | 55 | 277 | 1.7 | 7.8 | 0.00 | 0.02 | 0.01 | 89 | 1016.6 |
| 20260906020048 | 55 | 280 | 0.9 | 7.0 | 0.00 | 0.02 | 0.01 | 88 | 1016.6 |
| 20260906015536 | 55 | 224 | 1.7 | 7.8 | 0.00 | 0.02 | 0.01 | 88 | 1016.5 |
| 20260906015036 | 55 | 275 | 1.7 | 7.8 | 0.00 | 0.02 | 0.01 | 88 | 1016.5 |
| 20260906014535 | 55 | 211 | 2.6 | 6.1 | 0.00 | 0.02 | 0.01 | 88 | 1016.5 |
| 20260906014035 | 55 | 209 | 1.7 | 7.8 | 0.00 | 0.02 | 0.01 | 88 | 1016.4 |
| 20260906013534 | 55 | 290 | 0.9 | 7.8 | 0.00 | 0.02 | 0.01 | 88 | 1016.4 |
| 20260906013034 | 55 | 215 | 2.6 | 7.8 | 0.00 | 0.02 | 0.01 | 88 | 1016.4 |
| 20260906012532 | 55 | 289 | 2.6 | 7.8 | 0.00 | 0.02 | 0.01 | 88 | 1016.3 |
| 20260906012032 | 55 | 142 | 1.7 | 7.0 | 0.00 | 0.02 | 0.01 | 88 | 1016.3 |
| 20260906011531 | 55 | 163 | 1.7 | 8.7 | 0.00 | 0.02 | 0.01 | 88 | 1016.3 |
| 20260906011032 | 55 | 221 | 1.7 | 9.6 | 0.00 | 0.02 | 0.01 | 88 | 1016.2 |
| 20260906010530 | 55 | 234 | 2.6 | 7.8 | 0.00 | 0.02 | 0.01 | 88 | 1016.1 |
| 20260906010031 | 55 | 163 | 1.7 | 10.4 | 0.00 | 0.02 | 0.01 | 88 | 1016.1 |
| 20260906005529 | 55 | 5 | 2.6 | 10.4 | 0.00 | 0.02 | 0.01 | 88 | 1016.0 |
| 20260906005029 | 55 | 89 | 1.7 | 7.0 | 0.00 | 0.02 | 0.01 | 88 | 1016.0 |
| 20260906004530 | 55 | 188 | 2.6 | 7.0 | 0.00 | 0.02 | 0.01 | 88 | 1016.0 |
| 20260906004027 | 55 | 138 | 0.9 | 7.0 | 0.00 | 0.02 | 0.01 | 88 | 1016.0 |
| 20260906003527 | 55 | 100 | 1.7 | 7.8 | 0.00 | 0.02 | 0.01 | 88 | 1015.8 |
| 20260906003026 | 55 | 161 | 1.7 | 7.8 | 0.00 | 0.02 | 0.01 | 88 | 1015.7 |
| 20260906002527 | 55 | 43 | 1.7 | 7.8 | 0.00 | 0.02 | 0.01 | 88 | 1015.7 |
| 20260906002025 | 55 | 279 | 2.6 | 7.8 | 0.00 | 0.02 | 0.01 | 88 | 1015.7 |
| 20260906001524 | 55 | 188 | 1.7 | 8.7 | 0.00 | 0.02 | 0.01 | 88 | 1015.6 |
| 20260906001025 | 55 | 136 | 0.9 | 7.8 | 0.00 | 0.02 | 0.01 | 87 | 1015.6 |
| 20260906000623 | 55 | 265 | 1.7 | 7.8 | 0.00 | 0.02 | 0.01 | 87 | 1015.4 |
| 20260906000021 | 55 | 284 | 1.7 | 7.8 | 0.00 | 0.02 | 0.01 | 87 | 1015.3 |
| 20260905235519 | 55 | 320 | 2.6 | 8.7 | 0.00 | 0.02 | 0.01 | 87 | 1015.2 |
| 20260905235024 | 55 | 61 | 2.6 | 8.7 | 0.00 | 0.02 | 0.01 | 87 | 1015.2 |
| 20260905234518 | 55 | 302 | 3.5 | 9.6 | 0.00 | 0.02 | 0.01 | 87 | 1015.2 |
| 20260905234017 | 55 | 327 | 2.6 | 7.8 | 0.01 | 0.02 | 0.01 | 87 | 1015.0 |
| 20260905233516 | 55 | 276 | 1.7 | 7.0 | 0.01 | 0.02 | 0.01 | 87 | 1015.0 |
| 20260905233017 | 55 | 296 | 2.6 | 7.8 | 0.01 | 0.02 | 0.01 | 87 | 1014.8 |
| 20260905232514 | 55 | 212 | 1.7 | 7.8 | 0.01 | 0.02 | 0.01 | 87 | 1014.8 |
| 20260905232013 | 56 | 240 | 1.7 | 7.8 | 0.01 | 0.02 | 0.01 | 86 | 1014.7 |
| 20260905231513 | 56 | 233 | 2.6 | 10.4 | 0.01 | 0.02 | 0.01 | 86 | 1014.6 |
| 20260905231012 | 56 | 277 | 4.3 | 10.4 | 0.01 | 0.02 | 0.01 | 86 | 1014.6 |
| 20260905230511 | 56 | 311 | 1.7 | 9.6 | 0.01 | 0.02 | 0.01 | 86 | 1014.6 |
| 20260905230010 | 56 | 209 | 0.9 | 7.8 | 0.01 | 0.02 | 0.01 | 86 | 1014.5 |
| 20260905225510 | 56 | 272 | 2.6 | 7.8 | 0.01 | 0.02 | 0.01 | 85 | 1014.5 |
| 20260905225007 | 56 | 262 | 1.7 | 7.8 | 0.01 | 0.02 | 0.01 | 85 | 1014.4 |
| 20260905224507 | 56 | 312 | 1.7 | 10.4 | 0.01 | 0.02 | 0.01 | 84 | 1014.3 |
| 20260905224008 | 56 | 258 | 2.6 | 10.4 | 0.00 | 0.01 | 0.00 | 84 | 1014.2 |
| 20260905223508 | 56 | 281 | 1.7 | 14.8 | 0.00 | 0.01 | 0.00 | 84 | 1014.1 |
| 20260905223003 | 56 | 279 | 3.5 | 14.8 | 0.00 | 0.01 | 0.00 | 84 | 1014.1 |
| 20260905222503 | 56 | 155 | 2.6 | 10.4 | 0.00 | 0.01 | 0.00 | 83 | 1014.1 |
| 20260905222002 | 57 | 120 | 1.7 | 10.4 | 0.00 | 0.01 | 0.00 | 83 | 1014.0 |
| 20260905221501 | 57 | 298 | 0.9 | 7.8 | 0.00 | 0.01 | 0.00 | 83 | 1013.9 |
| 20260905221101 | 57 | 231 | 3.5 | 8.7 | 0.00 | 0.01 | 0.00 | 83 | 1013.7 |
| 20260905220559 | 57 | 182 | 1.7 | 9.6 | 0.00 | 0.01 | 0.00 | 83 | 1013.7 |
| 20260905220059 | 57 | 13 | 1.7 | 9.6 | 0.00 | 0.01 | 0.00 | 82 | 1013.7 |
| 20260905215557 | 57 | 267 | 4.3 | 12.2 | 0.00 | 0.01 | 0.01 | 82 | 1013.6 |
| 20260905215058 | 57 | 257 | 3.5 | 12.2 | 0.00 | 0.01 | 0.01 | 82 | 1013.5 |
| 20260905214604 | 57 | 180 | 3.5 | 10.4 | 0.00 | 0.01 | 0.01 | 82 | 1013.4 |
| 20260905214057 | 58 | 296 | 3.5 | 11.3 | 0.00 | 0.01 | 0.01 | 81 | 1013.4 |
| 20260905213556 | 58 | 197 | 3.5 | 11.3 | 0.00 | 0.01 | 0.01 | 81 | 1013.3 |
| 20260905213055 | 58 | 290 | 1.7 | 7.8 | 0.00 | 0.01 | 0.01 | 81 | 1013.3 |
| 20260905212557 | 58 | 179 | 3.5 | 10.4 | 0.00 | 0.01 | 0.01 | 81 | 1013.1 |
| 20260905212053 | 58 | 238 | 1.7 | 10.4 | 0.00 | 0.01 | 0.01 | 81 | 1013.2 |
| 20260905211554 | 58 | 260 | 3.5 | 9.6 | 0.00 | 0.01 | 0.01 | 81 | 1012.9 |
| 20260905211054 | 58 | 275 | 3.5 | 12.2 | 0.00 | 0.01 | 0.01 | 81 | 1013.0 |
| 20260905210552 | 58 | 277 | 1.7 | 12.2 | 0.00 | 0.01 | 0.01 | 81 | 1012.8 |
| 20260905210104 | 58 | 267 | 3.5 | 10.4 | 0.00 | 0.01 | 0.01 | 81 | 1012.8 |
| 20260905205552 | 58 | 211 | 3.5 | 9.6 | 0.00 | 0.01 | 0.01 | 81 | 1012.8 |
| 20260905205052 | 58 | 185 | 2.6 | 11.3 | 0.00 | 0.01 | 0.01 | 81 | 1012.8 |
| 20260905204551 | 58 | 186 | 3.5 | 13.9 | 0.00 | 0.01 | 0.01 | 81 | 1012.7 |
| 20260905204051 | 58 | 276 | 3.5 | 9.6 | 0.00 | 0.01 | 0.01 | 81 | 1012.7 |
| 20260905203551 | 58 | 183 | 2.6 | 11.3 | 0.00 | 0.01 | 0.01 | 81 | 1012.6 |
| 20260905203050 | 58 | 43 | 4.3 | 12.2 | 0.00 | 0.01 | 0.01 | 81 | 1012.4 |
| 20260905202549 | 58 | 202 | 3.5 | 11.3 | 0.00 | 0.01 | 0.01 | 81 | 1012.4 |
| 20260905202048 | 57 | 306 | 3.5 | 9.6 | 0.00 | 0.01 | 0.01 | 82 | 1012.3 |
| 20260905201548 | 57 | 190 | 3.5 | 9.6 | 0.00 | 0.01 | 0.01 | 82 | 1012.3 |
| 20260905201047 | 57 | 308 | 4.3 | 10.4 | 0.00 | 0.01 | 0.01 | 82 | 1012.3 |
| 20260905200546 | 57 | 242 | 3.5 | 9.6 | 0.00 | 0.01 | 0.01 | 83 | 1012.1 |
| 20260905200053 | 57 | 275 | 1.7 | 7.8 | 0.00 | 0.01 | 0.01 | 83 | 1012.0 |
| 20260905195550 | 57 | 294 | 2.6 | 8.7 | 0.00 | 0.01 | 0.01 | 83 | 1012.1 |
| 20260905195045 | 57 | 271 | 1.7 | 8.7 | 0.00 | 0.01 | 0.01 | 82 | 1012.1 |
| 20260905194547 | 57 | 202 | 2.6 | 11.3 | 0.00 | 0.01 | 0.01 | 82 | 1011.8 |
| 20260905194044 | 57 | 292 | 2.6 | 11.3 | 0.00 | 0.01 | 0.01 | 82 | 1011.9 |
| 20260905193543 | 57 | 238 | 3.5 | 11.3 | 0.00 | 0.01 | 0.01 | 82 | 1011.8 |
| 20260905193044 | 57 | 168 | 1.7 | 9.6 | 0.00 | 0.01 | 0.01 | 82 | 1011.8 |
| 20260905192542 | 57 | 311 | 2.6 | 13.0 | 0.00 | 0.01 | 0.01 | 82 | 1011.7 |
| 20260905192040 | 57 | 209 | 4.3 | 13.0 | 0.00 | 0.01 | 0.01 | 82 | 1011.6 |
| 20260905191542 | 57 | 198 | 2.6 | 8.7 | 0.00 | 0.01 | 0.01 | 82 | 1011.4 |
| 20260905191040 | 57 | 29 | 3.5 | 11.3 | 0.00 | 0.01 | 0.01 | 82 | 1011.3 |
| 20260905190540 | 58 | 170 | 3.5 | 12.2 | 0.00 | 0.01 | 0.01 | 82 | 1011.3 |
| 20260905190046 | 57 | 306 | 3.5 | 12.2 | 0.00 | 0.01 | 0.01 | 82 | 1011.2 |
| 20260905185543 | 57 | 360 | 3.5 | 12.2 | 0.00 | 0.02 | 0.01 | 82 | 1011.3 |
| 20260905185039 | 58 | 254 | 3.5 | 13.0 | 0.00 | 0.02 | 0.01 | 82 | 1011.2 |
| 20260905184540 | 58 | 55 | 3.5 | 9.6 | 0.00 | 0.02 | 0.01 | 81 | 1011.1 |
| 20260905184041 | 58 | 185 | 4.3 | 9.6 | 0.00 | 0.02 | 0.01 | 81 | 1011.1 |
| 20260905183538 | 58 | 324 | 3.5 | 13.0 | 0.00 | 0.02 | 0.01 | 80 | 1011.0 |
| 20260905183038 | 58 | 190 | 3.5 | 15.6 | 0.00 | 0.02 | 0.01 | 80 | 1011.0 |
| 20260905182536 | 58 | 243 | 3.5 | 15.6 | 0.00 | 0.02 | 0.01 | 79 | 1010.8 |
| 20260905182040 | 58 | 291 | 2.6 | 13.9 | 0.00 | 0.02 | 0.01 | 79 | 1010.8 |